Weather History for Atlantic City, NJ

Change the Weather History Date:

Monday, February 18, 2013

  Actual Average Record
Temperature  
Mean Temperature 29 °F 36 °F  
Max Temperature 38 °F 45 °F 72 °F (2011)
Min Temperature 19 °F 27 °F -7 °F (1979)
Degree Days  
Heating Degree Days 36 29  
Month to date heating degree days 585 550  
Since 1 July heating degree days 3145 3311  
Cooling Degree Days 0 0  
Month to date cooling degree days 0 0  
Year to date cooling degree days 0 0  
Moisture  
Dew Point 6 °F    
Average Humidity 40    
Maximum Humidity 53    
Minimum Humidity 27    
Precipitation  
Precipitation 0.00 in 0.11 in 1.88 in (1960)
Month to date precipitation 3.35 1.77  
Year to date precipitation 5.65 4.99  
Snow  
Snow 0.00 in 0.20 in 2.60 in (1967)
Month to date snowfall 6.3 4.6  
Since 1 July snowfall 11.4 13.0  
Snow Depth 0.00 in    
Sea Level Pressure  
Sea Level Pressure 30.24 in    
Wind  
Wind Speed 12 mph (West)    
Max Wind Speed 28 mph    
Max Gust Speed 35 mph    
Visibility 10 miles    
Events      
T = Trace of Precipitation, MM = Missing Value Source: NWS Daily Summary

Daily Weather History Graph

Daily Weather History Graph

Search for Another Location

Airport:

Trip Planner

Search our weather history database for the weather conditions in past years. The results will help you decide how hot, cold, wet, or windy it might be!

Date:

Astronomy

Feb. 18, 2013 Rise Set
Actual Time 6:46 AM EST 5:38 PM EST
Civil Twilight 6:18 AM EST 6:06 PM EST
Nautical Twilight 5:47 AM EST 6:37 PM EST
Astronomical Twilight 5:16 AM EST 7:08 PM EST
Moon 11:23 AM EST (2/18) 1:22 AM EST (2/18)
Length of Visible Light 11h 47m
Length of Day
10h 52m
First Quarter, 58% of the Moon is Illuminated
Feb 18
First Quarter
Feb 25
Full
Mar 4
Last Quarter
Mar 11
New
Mar 19
First Quarter

Hourly Weather History & Observations

Time (EST) Temp. Windchill Dew Point Humidity Pressure Visibility Wind Dir Wind Speed Gust Speed Precip Events Conditions
12:54 AM 21.9 °F 6.2 °F -0.0 °F 38% 30.10 in 10.0 mi WNW 21.9 mph 31.1 mph N/A   Clear
1:54 AM 21.0 °F 5.0 °F 1.0 °F 42% 30.12 in 10.0 mi WNW 21.9 mph 29.9 mph N/A   Clear
2:54 AM 21.0 °F 5.7 °F 1.9 °F 44% 30.14 in 10.0 mi WNW 19.6 mph 25.3 mph N/A   Clear
3:54 AM 19.9 °F 5.2 °F 3.9 °F 50% 30.15 in 10.0 mi WNW 17.3 mph 27.6 mph N/A   Clear
4:54 AM 19.9 °F 5.2 °F 3.9 °F 50% 30.19 in 10.0 mi NW 17.3 mph - N/A   Clear
5:54 AM 19.9 °F 6.7 °F 3.9 °F 50% 30.22 in 10.0 mi WNW 13.8 mph 21.9 mph N/A   Clear
6:54 AM 19.0 °F 6.8 °F 3.9 °F 52% 30.25 in 10.0 mi WNW 11.5 mph - N/A   Clear
7:54 AM 21.9 °F 8.7 °F 5.0 °F 48% 30.28 in 10.0 mi WNW 15.0 mph 23.0 mph N/A   Clear
8:54 AM 25.0 °F 11.3 °F 5.0 °F 43% 30.31 in 10.0 mi WNW 18.4 mph 25.3 mph N/A   Clear
9:54 AM 27.0 °F 14.3 °F 5.0 °F 39% 30.32 in 10.0 mi WNW 17.3 mph - N/A   Clear
10:54 AM 30.0 °F 19.1 °F 6.1 °F 36% 30.31 in 10.0 mi West 15.0 mph - N/A   Clear
11:54 AM 33.1 °F 24.4 °F 7.0 °F 34% 30.30 in 10.0 mi WNW 11.5 mph 21.9 mph N/A   Clear
12:54 PM 35.1 °F 25.9 °F 7.0 °F 31% 30.27 in 10.0 mi WNW 13.8 mph - N/A   Clear
1:54 PM 36.0 °F 28.5 °F 7.0 °F 30% 30.25 in 10.0 mi WNW 10.4 mph 19.6 mph N/A   Clear
2:54 PM 37.0 °F 29.8 °F 6.1 °F 28% 30.25 in 10.0 mi West 10.4 mph - N/A   Clear
3:54 PM 37.0 °F 29.8 °F 6.1 °F 28% 30.24 in 10.0 mi WSW 10.4 mph 20.7 mph N/A   Clear
4:54 PM 36.0 °F 29.0 °F 7.0 °F 30% 30.25 in 10.0 mi WSW 9.2 mph - N/A   Clear
5:54 PM 33.1 °F 27.7 °F 7.0 °F 34% 30.26 in 10.0 mi WSW 5.8 mph - N/A   Clear
6:54 PM 30.9 °F 26.2 °F 8.1 °F 38% 30.27 in 10.0 mi SW 4.6 mph - N/A   Clear
7:54 PM 30.9 °F 25.2 °F 9.0 °F 40% 30.28 in 10.0 mi SW 5.8 mph - N/A   Clear
8:54 PM 30.9 °F 25.2 °F 10.0 °F 42% 30.27 in 10.0 mi SW 5.8 mph - N/A   Clear
9:54 PM 28.9 °F 22.8 °F 12.9 °F 51% 30.26 in 10.0 mi SSW 5.8 mph - N/A   Clear
10:54 PM 30.0 °F 24.1 °F 15.1 °F 54% 30.25 in 10.0 mi SSW 5.8 mph - N/A   Clear
11:54 PM 30.9 °F 25.2 °F 12.9 °F 47% 30.24 in 10.0 mi South 5.8 mph - N/A   Clear